Lid_Strength_Index
11 13 14 13 13 15 15 16 17 16 13 13 14 14 12 12 12 12 11 11 11 11 10 10 9 9 9 6 3 1 1 1 0 1 2 1 2 1 1 0 2 2 3 4
13 15 12 12 13 14 15 15 16 15 13 14 15 14 13 12 12 11 11 12 12 12 11 10 10 10 10 9 6 3 1 1 1 1 1 1 1 1 1 0 1 2 2 4
14 13 12 13 15 14 16 16 16 16 15 15 16 16 15 14 14 13 13 12 12 12 12 12 11 10 10 10 10 5 2 1 1 0 0 1 1 1 1 1 1 1 2 3
13 13 13 14 15 15 16 14 14 15 16 18 16 19 17 15 14 14 13 12 12 11 11 10 10 9 9 9 9 10 6 3 1 0 1 1 2 3 1 1 0 1 1 2
14 13 14 15 14 13 15 13 14 15 17 17 18 19 17 17 15 14 13 12 11 11 11 10 10 10 9 9 8 7 9 6 2 1 1 1 2 1 1 1 1 1 1 1
14 12 12 13 13 13 13 15 16 17 18 20 19 18 19 17 15 15 14 12 11 11 11 11 10 10 10 9 8 6 5 5 3 1 1 1 2 3 4 4 2 2 2 2
15 14 13 12 13 13 15 15 19 19 20 20 19 19 18 16 15 14 13 11 11 11 11 11 11 10 10 10 9 8 6 5 3 2 2 2 2 3 3 4 3 3 4 5
17 18 13 12 13 14 15 15 18 22 22 21 18 20 17 14 13 12 11 11 11 11 11 11 11 11 10 10 9 9 9 8 6 4 4 3 4 4 4 4 4 5 4 4
17 17 13 13 12 12 15 16 15 19 26 22 19 17 15 14 13 12 12 12 12 12 12 11 11 11 10 10 9 9 9 9 8 8 7 7 6 6 5 5 5 5 5 5
14 16 14 13 12 13 14 13 17 18 24 24 20 20 18 15 14 12 12 12 12 12 12 12 12 11 11 10 9 9 9 9 8 8 7 7 7 6 6 5 5 5 5 6
13 14 15 13 14 15 15 16 16 16 18 21 24 20 16 15 13 12 12 12 12 12 12 11 11 11 11 11 11 10 10 9 9 8 8 8 8 7 7 7 7 7 7 7
13 14 17 15 14 13 14 15 15 17 20 19 19 18 14 14 12 12 12 12 12 11 11 11 11 11 11 11 11 11 11 10 10 9 9 9 9 9 9 9 9 8 8 9
13 16 21 17 16 15 16 15 15 15 16 19 20 17 13 13 12 12 12 11 11 11 12 12 12 12 12 12 12 12 12 12 12 11 11 11 11 11 11 11 11 10 10 10
10 16 16 17 17 15 16 15 14 14 18 16 17 16 15 13 12 11 11 11 12 12 12 12 12 12 12 12 12 12 13 13 13 12 12 12 13 12 12 12 12 12 12 12
12 17 17 16 15 15 16 15 15 14 13 16 15 16 14 12 11 11 11 12 12 12 12 12 12 12 12 12 12 12 12 13 13 13 13 13 13 13 13 13 14 13 13 13
11 17 16 19 15 15 18 15 15 14 13 13 15 16 14 10 11 12 12 12 13 13 13 12 12 12 12 12 12 13 13 13 13 14 14 14 14 14 14 14 14 14 14 14
13 15 17 19 16 15 17 16 16 15 15 14 16 13 13 14 12 12 13 13 13 13 13 13 13 12 12 13 13 14 14 14 14 14 15 15 15 15 15 15 15 15 15 15
14 14 14 17 15 20 15 16 14 13 13 13 13 14 12 12 12 12 13 13 14 13 13 13 12 12 13 13 14 14 14 15 15 15 15 15 15 16 15 16 16 15 15 15
11 14 16 18 18 17 16 16 15 15 14 12 12 13 14 14 14 15 14 14 14 14 14 13 13 13 14 14 15 15 15 15 15 15 15 16 16 17 17 17 16 16 16 16
12 12 15 18 19 23 17 17 14 13 17 16 12 13 14 14 14 16 14 14 14 14 14 14 14 14 15 15 15 15 16 16 16 16 15 16 16 19 18 17 17 17 18 16
15 14 16 17 17 18 15 15 14 19 17 17 15 14 13 15 14 14 14 14 14 14 14 15 15 16 16 15 16 16 16 16 16 17 17 17 17 19 18 18 18 18 18 17
15 16 16 16 17 19 17 15 15 15 16 16 16 15 15 16 15 15 15 15 15 15 16 16 17 16 16 16 17 17 17 17 17 17 16 17 19 18 16 19 18 18 18 17
16 14 15 14 15 15 16 16 14 14 16 16 16 15 15 16 16 16 16 15 15 16 17 18 18 18 18 18 18 19 18 17 17 17 18 16 16 16 15 16 16 16 15 14
18 16 16 16 15 16 16 16 15 15 15 15 15 15 15 16 16 15 15 15 16 17 18 19 19 18 18 19 18 20 19 19 22 22 20 18 18 17 15 13 13 14 14 14
15 16 18 18 16 16 15 15 14 14 15 15 15 15 15 15 15 15 16 17 17 18 19 19 19 19 19 20 21 22 21 23 24 22 20 19 18 18 17 15 14 13 12 12
14 14 15 17 13 13 13 13 13 14 14 14 14 15 15 14 15 16 17 18 18 19 19 19 20 21 22 22 22 22 24 25 26 24 21 20 20 19 18 17 16 12 10 10